Wind_Speed
41 40 39 40 40 38 38 38 38 37 37 37 36 35 35 36 36 35 35 35 35 36 36 37 37 37 38 39 40 41 43 44 45 46 48 50 51 52 52 52 51 49 48
41 40 40 40 40 39 38 38 37 37 37 37 36 35 34 35 35 35 35 36 36 36 37 37 37 37 39 40 41 42 43 44 46 47 49 50 51 50 50 50 49 47 47
40 40 40 40 39 39 38 38 37 36 36 37 36 35 34 35 35 35 35 36 37 37 37 37 37 38 40 41 41 42 43 45 47 48 49 49 49 49 48 47 46 46 46
39 39 39 39 39 38 38 38 38 38 37 37 36 36 35 34 34 35 35 36 36 36 37 37 38 39 40 41 42 43 44 45 47 48 48 48 48 47 46 45 44 44 44
39 39 39 39 39 38 38 38 39 39 39 37 36 36 35 35 35 35 35 35 35 36 37 37 38 40 41 42 43 43 44 46 47 48 47 46 46 45 44 43 43 42 42
39 39 39 39 39 39 39 39 40 40 39 39 38 37 36 35 36 36 36 36 36 37 37 38 39 40 41 42 43 44 45 45 46 46 45 44 43 42 42 42 42 42 41
38 39 40 40 39 39 38 39 39 39 39 38 38 37 36 36 36 36 36 36 37 37 38 39 39 40 41 41 42 43 44 44 44 44 43 43 42 41 41 42 42 41 40
37 37 38 38 38 38 38 37 38 38 38 38 38 37 37 37 37 36 36 36 37 38 38 39 39 40 40 41 41 41 42 43 43 42 42 42 41 41 42 42 41 40 38
37 36 37 37 37 37 38 37 37 37 37 37 37 37 37 37 37 37 36 36 37 37 38 39 39 39 39 40 40 41 41 41 41 41 41 41 41 41 41 40 39 37 35
35 36 36 36 36 36 37 36 36 36 36 36 36 36 36 37 37 37 36 36 36 37 37 38 38 38 39 39 40 40 39 39 40 40 39 39 39 39 38 37 36 34 32
35 35 35 35 35 35 35 36 36 36 36 36 36 36 36 37 37 37 36 36 36 36 36 37 37 37 38 39 39 38 38 38 38 38 37 36 35 35 34 33 32 31 29
34 34 34 34 34 34 34 34 35 35 35 35 35 36 36 36 36 36 36 36 36 35 36 36 36 36 37 37 37 36 37 37 36 34 33 32 31 31 31 30 30 28 27
33 33 33 34 33 33 33 34 34 34 34 34 34 34 34 34 34 35 35 35 35 35 35 35 35 35 35 35 35 35 35 33 32 31 29 29 29 29 29 28 27 26 25
32 32 33 33 33 33 33 33 34 34 35 35 34 34 34 33 33 33 34 34 33 33 33 33 34 34 34 33 32 32 31 29 28 27 26 27 27 28 27 26 25 24 23
31 32 32 32 32 32 32 32 32 33 33 34 34 33 33 33 33 32 32 32 32 33 33 33 32 32 31 30 29 29 27 26 26 25 25 25 26 26 26 25 23 21 21
31 31 31 31 31 31 31 32 32 32 32 32 32 32 32 32 32 32 31 31 32 32 32 31 30 29 28 27 27 26 25 24 24 24 24 25 25 24 23 22 20 20 19
31 31 31 31 31 30 30 31 31 31 31 30 30 30 30 30 30 30 30 30 30 30 29 28 27 26 26 26 25 24 23 22 22 23 23 23 23 22 21 19 19 18 17
30 31 31 31 31 30 30 30 30 30 29 29 29 28 27 28 28 28 29 29 28 27 26 25 25 24 24 24 24 22 21 21 22 22 22 22 21 20 19 18 17 17 16
29 29 30 30 30 29 29 29 28 28 29 29 28 27 26 26 26 27 27 26 25 25 24 24 23 23 23 23 22 21 20 20 21 21 21 21 20 18 17 16 17 16 15
29 29 29 29 29 28 28 28 27 27 27 27 26 26 25 25 25 25 24 24 24 23 23 22 22 22 22 21 20 19 19 19 19 19 19 18 17 16 16 16 16 16 15
28 28 28 28 28 28 28 27 27 26 25 25 24 24 24 23 23 23 23 23 22 22 21 21 21 20 20 19 18 18 18 18 18 17 17 16 15 15 15 16 16 16 16
28 28 28 28 27 27 27 26 26 25 25 24 24 24 24 23 22 22 22 21 21 20 20 20 19 19 19 18 17 17 17 16 16 16 15 15 15 14 14 15 16 16 15
28 27 27 27 27 27 27 26 26 26 25 25 25 24 23 22 22 22 21 21 20 20 19 19 19 18 18 17 16 16 15 15 15 14 15 15 14 14 14 15 15 15 14
27 27 27 27 27 26 25 25 25 25 25 25 24 23 22 22 21 22 21 21 20 20 19 19 19 18 17 17 16 15 15 14 14 14 14 14 14 14 14 14 14 13 13
27 27 27 27 27 26 25 25 25 24 24 24 23 23 22 22 21 21 21 21 20 20 19 19 18 18 17 16 15 15 14 14 14 14 14 14 14 13 13 13 12 12 12
25 26 26 25 25 25 25 25 24 23 23 22 22 22 22 22 21 21 20 20 19 19 19 19 18 17 16 16 15 15 14 14 14 14 14 13 13 13 13 12 12 12 11
Wind_Direction
238 240 242 244 246 247 249 249 251 253 254 254 258 260 262 265 267 268 270 272 274 277 280 282 284 286 288 290 292 294 296 298 299 301 302 303 304 304 304 305 304 304 304
239 240 241 244 246 247 248 248 250 253 255 255 257 259 261 264 266 269 271 272 274 278 281 282 284 286 289 291 293 295 297 299 301 302 303 304 304 305 305 305 304 304 305
239 240 242 244 246 247 247 248 249 252 254 255 256 259 261 264 265 268 271 272 275 278 281 282 284 287 289 291 293 296 298 300 301 303 304 305 305 305 305 304 304 305 306
239 240 241 243 245 246 247 248 249 251 253 255 256 258 261 264 266 269 272 274 276 278 281 282 285 287 289 291 294 296 298 300 302 304 305 305 306 305 304 304 304 305 306
239 240 241 243 245 246 248 249 250 252 253 255 257 259 261 263 266 269 271 274 276 278 281 283 285 288 289 292 294 296 298 301 303 304 305 306 306 306 305 305 305 305 307
239 240 242 243 245 247 248 249 251 252 254 255 257 259 261 263 267 269 271 273 276 278 281 283 286 288 291 293 295 298 299 301 303 305 306 306 307 306 305 306 306 307 307
240 241 243 244 245 247 248 249 250 252 253 254 255 258 261 264 267 269 271 273 276 278 281 283 286 288 291 293 296 298 300 302 304 306 306 306 306 306 306 307 307 308 308
241 241 241 242 245 247 248 249 250 252 253 254 256 259 261 264 267 269 271 273 276 279 282 284 286 289 291 294 296 298 300 302 304 305 306 306 307 307 308 309 309 309 309
241 242 242 243 244 247 248 248 250 251 252 254 257 259 262 266 268 270 272 274 277 279 282 284 287 290 291 294 296 298 300 301 303 305 306 307 307 309 309 310 310 310 310
242 242 242 242 244 246 248 248 248 250 251 254 256 259 263 266 269 270 272 275 277 279 282 285 288 290 292 294 296 298 299 301 303 305 305 307 309 310 311 311 312 311 312
242 241 241 241 243 245 246 247 248 249 251 253 256 259 262 265 268 270 273 276 278 280 281 284 288 290 292 295 296 298 299 301 303 304 305 307 310 312 313 314 314 314 315
242 241 241 241 242 244 245 247 249 250 251 254 256 259 261 265 268 270 273 275 277 280 282 284 287 290 293 295 296 298 299 301 303 304 305 308 311 313 314 315 316 316 316
241 240 240 241 242 244 246 247 249 251 252 254 256 259 262 265 268 270 272 275 277 280 283 285 288 290 293 294 296 298 300 301 302 304 305 308 311 314 315 316 316 316 317
241 240 240 241 243 245 246 248 250 251 253 255 257 259 262 265 267 270 273 275 277 279 282 285 288 290 292 294 295 297 300 301 303 304 305 308 312 315 316 316 316 317 317
240 241 241 242 243 245 247 249 251 252 255 257 259 261 263 266 268 271 273 274 276 279 281 284 287 289 291 292 294 298 299 300 303 305 306 309 312 315 316 316 316 317 318
240 242 243 244 246 247 248 250 252 255 257 259 261 263 263 265 268 270 272 274 276 278 281 282 284 287 289 291 295 297 298 300 303 306 307 310 314 315 316 316 316 317 318
241 243 244 245 247 248 249 251 253 254 256 259 261 263 264 266 268 270 272 273 275 278 279 280 283 284 287 291 294 295 296 299 303 306 308 310 313 314 315 315 317 318 319
242 242 243 245 247 249 251 252 253 254 255 257 260 263 265 265 267 268 271 273 274 276 276 278 282 284 287 290 292 293 294 297 301 305 307 309 311 312 312 314 317 319 319
241 242 242 244 246 249 250 251 252 253 254 257 259 261 263 264 266 268 270 272 273 274 276 279 282 284 287 288 289 290 293 296 300 305 307 308 309 310 311 312 315 316 319
241 241 242 243 245 247 249 251 252 253 253 255 257 259 261 262 265 266 267 269 272 275 277 279 282 285 285 286 287 289 292 296 300 304 308 309 309 309 310 312 315 315 316
242 243 242 244 245 247 248 249 250 252 252 252 254 256 258 260 262 263 265 268 271 273 274 277 280 282 283 286 286 288 291 294 298 303 308 310 310 309 311 312 314 315 315
242 242 242 243 243 244 245 246 247 250 251 252 253 255 257 259 261 262 265 268 269 270 272 275 276 279 282 283 284 287 290 292 295 299 306 310 311 310 311 313 315 316 316
240 240 241 241 241 242 244 244 246 248 250 252 253 254 255 257 260 263 266 267 268 270 271 274 277 281 282 281 282 286 288 290 293 297 304 308 310 309 310 313 316 318 319
240 238 238 239 240 240 241 243 244 245 247 249 251 252 253 254 258 262 265 265 267 270 272 275 277 280 280 280 279 282 284 286 290 296 302 305 309 309 310 313 314 315 317
238 237 237 239 239 239 241 242 243 245 247 248 248 249 251 255 259 262 263 263 265 268 273 276 277 279 279 277 274 275 279 283 287 294 300 303 308 309 309 310 312 314 316
236 237 237 238 238 239 239 240 241 244 245 246 246 248 251 255 258 259 259 261 263 267 271 274 276 276 274 271 268 269 274 280 286 292 297 301 307 308 308 310 312 314 314
Height
5673 5677 5680 5684 5687 5689 5692 5695 5697 5699 5701 5702 5704 5705 5706 5707 5707 5708 5708 5708 5707 5707 5705 5704 5702 5700 5698 5695 5691 5688 5684 5680 5677 5673 5667 5661 5654 5647 5640 5633 5627 5621 5614
5664 5668 5671 5675 5678 5680 5683 5686 5688 5690 5692 5694 5695 5697 5698 5698 5698 5699 5699 5699 5699 5698 5696 5695 5693 5690 5688 5685 5682 5678 5674 5670 5665 5662 5656 5649 5642 5635 5629 5622 5616 5609 5604
5655 5658 5662 5665 5669 5671 5674 5676 5679 5681 5683 5685 5686 5688 5689 5689 5690 5690 5690 5690 5689 5689 5687 5685 5683 5681 5678 5675 5672 5668 5664 5659 5654 5649 5644 5638 5631 5624 5618 5612 5605 5599 5593
5645 5649 5653 5656 5659 5662 5665 5667 5670 5672 5674 5676 5678 5679 5680 5680 5681 5681 5681 5681 5680 5679 5678 5676 5674 5671 5669 5666 5662 5658 5654 5649 5644 5638 5633 5627 5620 5613 5607 5602 5597 5590 5584
5636 5640 5644 5647 5650 5653 5655 5658 5660 5663 5665 5667 5668 5670 5671 5671 5672 5672 5672 5671 5671 5670 5668 5666 5664 5662 5659 5655 5652 5648 5644 5639 5633 5628 5622 5616 5610 5603 5597 5592 5587 5581 5575
5627 5631 5634 5638 5641 5643 5646 5648 5651 5653 5656 5658 5659 5660 5661 5662 5663 5662 5662 5662 5662 5660 5659 5657 5655 5652 5649 5645 5641 5637 5633 5628 5623 5617 5611 5605 5600 5594 5588 5582 5577 5572 5567
5618 5621 5625 5628 5631 5634 5636 5639 5642 5644 5646 5648 5649 5651 5652 5653 5653 5653 5653 5653 5652 5651 5649 5647 5645 5642 5639 5636 5632 5627 5622 5617 5612 5607 5601 5595 5590 5584 5579 5573 5567 5561 5556
5609 5612 5615 5618 5622 5624 5627 5629 5632 5634 5636 5638 5640 5641 5642 5643 5644 5644 5644 5643 5642 5641 5639 5638 5635 5632 5629 5626 5622 5618 5613 5608 5603 5597 5592 5586 5580 5574 5569 5563 5558 5552 5547
5599 5603 5606 5609 5612 5615 5617 5620 5622 5625 5627 5629 5631 5632 5633 5634 5634 5634 5634 5634 5633 5631 5629 5627 5625 5623 5619 5616 5613 5609 5604 5599 5593 5587 5582 5576 5571 5565 5559 5554 5549 5544 5539
5591 5594 5597 5600 5602 5605 5608 5610 5613 5615 5617 5619 5621 5622 5624 5624 5624 5624 5624 5624 5623 5622 5620 5618 5615 5613 5609 5606 5602 5599 5595 5590 5585 5580 5574 5568 5562 5557 5551 5545 5540 5535 5531
5581 5584 5588 5590 5593 5596 5598 5601 5603 5606 5608 5610 5612 5613 5614 5615 5615 5615 5614 5614 5613 5612 5610 5608 5606 5603 5600 5597 5593 5589 5585 5581 5576 5571 5566 5561 5555 5550 5544 5539 5533 5529 5524
5572 5576 5579 5582 5585 5587 5590 5592 5594 5596 5598 5600 5602 5603 5604 5605 5605 5605 5605 5604 5603 5602 5601 5599 5597 5594 5591 5588 5584 5580 5576 5572 5568 5563 5559 5554 5549 5544 5538 5533 5528 5523 5519
5563 5567 5570 5573 5576 5578 5581 5583 5585 5587 5590 5591 5593 5594 5595 5596 5596 5595 5595 5595 5594 5593 5591 5590 5588 5585 5582 5579 5575 5572 5568 5564 5560 5556 5552 5547 5543 5538 5533 5528 5523 5519 5514
5555 5558 5561 5564 5567 5570 5572 5575 5577 5579 5581 5582 5584 5585 5586 5586 5587 5587 5586 5585 5585 5584 5582 5581 5578 5576 5573 5570 5567 5564 5560 5556 5553 5549 5546 5542 5537 5533 5528 5524 5519 5515 5511
5547 5550 5553 5556 5559 5562 5564 5566 5568 5570 5572 5574 5575 5576 5577 5578 5578 5578 5577 5577 5576 5575 5574 5572 5570 5568 5565 5562 5559 5556 5553 5550 5547 5543 5540 5536 5532 5528 5523 5519 5515 5511 5507
5539 5542 5545 5548 5551 5553 5556 5558 5559 5562 5563 5564 5566 5567 5568 5568 5568 5569 5568 5568 5567 5566 5565 5564 5562 5560 5558 5555 5553 5550 5547 5544 5541 5538 5534 5531 5527 5523 5519 5515 5511 5508 5504
5531 5534 5537 5540 5542 5545 5547 5550 5552 5553 5554 5556 5557 5558 5559 5559 5560 5560 5560 5559 5558 5558 5556 5555 5554 5552 5550 5548 5546 5543 5541 5538 5535 5533 5529 5526 5522 5519 5515 5512 5508 5505 5501
5523 5526 5529 5532 5535 5537 5539 5542 5544 5545 5547 5548 5549 5550 5550 5551 5551 5551 5551 5551 5551 5550 5549 5548 5547 5545 5544 5542 5539 5537 5535 5533 5530 5527 5524 5521 5518 5515 5511 5508 5505 5502 5499
5516 5518 5521 5524 5527 5529 5532 5534 5535 5537 5539 5540 5541 5542 5543 5543 5543 5544 5544 5544 5543 5543 5542 5541 5540 5539 5537 5535 5533 5531 5530 5527 5525 5523 5520 5517 5514 5511 5508 5505 5502 5499 5496
5508 5511 5514 5516 5519 5522 5524 5526 5528 5529 5531 5532 5534 5535 5536 5536 5537 5537 5537 5537 5536 5536 5535 5535 5533 5532 5530 5529 5527 5526 5524 5522 5520 5518 5515 5512 5510 5507 5505 5502 5499 5496 5493
5500 5503 5506 5509 5511 5514 5516 5518 5520 5522 5524 5525 5526 5528 5529 5530 5530 5530 5530 5530 5530 5529 5529 5528 5527 5526 5525 5523 5522 5521 5519 5517 5516 5514 5511 5509 5506 5504 5502 5499 5497 5494 5491
5492 5495 5498 5501 5503 5506 5508 5511 5513 5515 5517 5518 5520 5521 5522 5523 5523 5523 5524 5524 5523 5523 5523 5522 5521 5520 5519 5518 5517 5516 5514 5513 5511 5509 5507 5505 5503 5501 5499 5496 5494 5491 5488
5484 5487 5490 5493 5495 5498 5501 5503 5505 5507 5509 5511 5513 5514 5515 5516 5517 5517 5517 5517 5517 5517 5516 5516 5515 5515 5513 5512 5511 5510 5509 5508 5507 5505 5504 5502 5500 5498 5496 5494 5491 5488 5486
5476 5479 5482 5485 5488 5490 5493 5496 5498 5500 5502 5504 5505 5507 5508 5509 5510 5511 5511 5511 5511 5511 5511 5510 5510 5509 5508 5507 5506 5506 5505 5504 5503 5502 5500 5499 5497 5495 5493 5491 5488 5486 5483
5469 5471 5474 5477 5480 5483 5486 5488 5491 5493 5495 5497 5498 5500 5502 5503 5504 5504 5504 5505 5505 5505 5505 5505 5504 5503 5503 5502 5501 5501 5501 5500 5499 5498 5497 5495 5494 5492 5490 5488 5486 5484 5481
5461 5464 5467 5470 5473 5476 5479 5481 5484 5486 5488 5490 5492 5493 5495 5496 5497 5497 5498 5499 5499 5499 5499 5499 5498 5498 5497 5497 5497 5496 5496 5496 5495 5494 5493 5492 5490 5489 5487 5485 5483 5481 5479